Girona Airport

Jump to: basic info | weather | frequencies | runways | comments

Related pages: nearby airports | nearby navaids | notams | map

Basic information (top)

Codes: GRO LEGE
Location: lon 41.901001, lat 2.760550, elev 468 ft / 143 m msl
Status: medium_airport
Scheduled airline service: yes
Links: Wikipedia Mobile

Weather (top)

Current conditions (rec'd 2014/10/26 08:00Z):

LEGE 260800Z 00000KT 9999 FEW080 15/13 Q1023

Airport forecast (rec'd 2014/10/26 06:27Z):

TAF LEGE 260500Z 2606/2706 VRB04KT 9999 FEW040 TX25/2612Z TN08/2606Z 
      TEMPO 2609/2615 06007KT

Frequencies (top)

Verify before use: may be inaccurate or out of date.

APP: 120.9 MHz (APP)
GND: 121.7 MHz (GND)
TWR: 118.5 MHz (TWR)

Runways (top)

02/20: 7,874 x 148 ft (2,400 x 45 m) — paved — lighted

Latest comments (top)

No comments yet for Girona Airport

More... (top)

See also NOTAMs and nearby airports and navaids, or visit the Girona Airport page at the main OurAirports website..